Regional Weather Roundup
Issued by NWS

Home | Current Version | Previous Version | Graphics & Text | Print | Product List | Glossary On
Versions: 1 2 3 4 5 6 7 8 9 10 11 12 13 14 15 16 17 18 19 20 21 22 23 24 25 26 27 28 29 30 31 32 33 34 35 36 37 38 39 40 41 42 43 44 45 46 47 48 49 50
000
ASUS45 KCYS 060710
RWRWY

WYOMING REGIONAL WEATHER ROUNDUP
NATIONAL WEATHER SERVICE CHEYENNE WY
100 AM MDT MON JUL 06 2015

NOTE:  "FAIR" INDICATES FEW OR NO CLOUDS BELOW 12,000 FEET
WITH NO SIGNIFICANT WEATHER AND/OR OBSTRUCTIONS TO VISIBILITY.

WYZ001-060800-
YELLOWSTONE NATIONAL PARK

CITY           SKY/WX    TMP DP  RH WIND       PRES   REMARKS
LK YELLOWSTONE   N/A     49  48  97 CALM      30.33F
W YELLOWSTONE  NOT AVBL

$$
WYZ002>013-054>058-071-098>099-060800-
NORTHERN WYOMING

CITY           SKY/WX    TMP DP  RH WIND       PRES   REMARKS
JACKSON        CLOUDY    55  55 100 N10       30.28R
CODY           MOCLDY    52  52 100 NE7       30.22R
GREYBULL       CLOUDY    59  51  75 W5        30.14F
WORLAND        LGT RAIN  57  53  86 N7        30.18S FOG
SHERIDAN       CLOUDY    56  54  93 N3        30.20F FOG
BUFFALO        CLOUDY    53  51  93 W8        30.24S FOG
GILLETTE       CLOUDY    56  54  93 NW10      30.19R FOG
HULETT         CLOUDY    57  55  94 N3        30.18S FOG
NEWCASTLE      RAIN      57  52  82 W6        30.13R

$$
WYZ014>020-022>026-101>103-060800-
CENTRAL WYOMING

CITY           SKY/WX    TMP DP  RH WIND       PRES   REMARKS
BIG PINEY      CLOUDY    57  50  77 N14G26    30.26S
PINEDALE       RAIN      54  50  87 N18G24    30.28S
DUBOIS         PTSUNNY   52  50  93 SW9       30.28R
LANDER         MOCLDY    56  53  90 W6        30.21R
RIVERTON       CLOUDY    58  54  86 NE10      30.22R
CASPER         LGT RAIN  55  53  93 N12       30.21R FOG
DOUGLAS        LGT RAIN  56  55  97 N13       30.18R FOG

$$
WYZ021-027>030-104>119-060800-
SOUTHERN WYOMING

CITY           SKY/WX    TMP DP  RH WIND       PRES   REMARKS
EVANSTON       FAIR      59  53  80 VRB3      30.25S
KEMMERER       PTSUNNY   54  50  87 NW3       30.26S
FORT BRIDGER   SUNNY     59  57  94 W6        30.27R
ROCK SPRINGS   FAIR      56  53  90 E5        30.24R
DIXON          FAIR      52  51  95 CALM      30.26R
RAWLINS        CLOUDY    58  56  93 N5        30.23R
SARATOGA       CLOUDY    54  54 100 CALM      30.25R
LARAMIE        CLOUDY    57  55  93 N6        30.23S
CHEYENNE       CLOUDY    58  57  97 N12G22    30.18R FOG
TORRINGTON     LGT RAIN  62  58  86 N14       30.10R
PINE BLUFFS    CLOUDY    59  57  94 N18       30.13R

$$



USA.gov is the U.S. government's official web portal to all federal, state and local government web resources and services.